Wind_Speed
13 17 20 16 19 20 26 30 16 17 24 17 12 13 15 9 8 4 8 14 15 14 12 13 15 16 17 18 17 17 18 18 17 15 14 14 17 23 26 28 29 29 30 31
11 5 10 19 15 17 17 22 28 28 27 23 21 14 8 13 13 16 7 10 7 6 8 8 9 11 14 17 21 23 21 23 24 23 24 25 25 24 22 24 30 35 36 36
5 11 17 12 18 17 18 20 23 18 21 20 10 26 12 15 12 13 11 8 9 7 6 13 16 14 15 18 19 22 25 26 29 32 32 31 30 32 33 31 30 33 36 41
8 16 3 4 6 14 18 11 12 23 21 17 10 14 23 8 11 12 9 9 14 14 11 12 10 11 14 18 17 20 23 25 28 31 33 35 38 39 37 35 37 37 37 38
6 9 17 26 8 10 5 9 13 10 16 20 29 26 18 15 12 10 8 8 11 10 10 12 12 11 11 10 13 16 18 21 27 31 34 37 39 43 43 42 42 41 41 43
8 4 4 4 5 9 7 3 10 13 29 27 30 29 21 13 10 9 8 11 11 14 14 14 14 15 14 14 14 16 16 19 22 23 27 36 41 45 43 43 44 45 46 45
23 12 12 16 17 17 4 5 21 23 37 39 32 21 19 16 11 9 12 17 18 17 18 19 18 19 20 19 20 21 22 24 25 25 26 29 30 37 46 51 51 46 47 50
20 10 11 16 8 9 5 14 14 23 25 25 24 20 15 10 9 12 13 16 20 22 22 22 23 24 25 27 28 30 30 30 29 30 32 32 31 32 35 40 48 54 55 55
11 11 9 9 19 18 13 11 19 16 17 12 12 11 11 12 12 12 14 17 21 23 25 25 25 26 27 29 30 31 33 34 35 35 36 37 38 38 37 36 40 48 54 56
15 16 15 19 11 19 20 22 21 16 13 14 15 14 14 15 18 20 19 21 23 24 24 25 25 26 28 30 31 31 31 33 34 35 36 37 38 40 41 40 38 44 49 49
14 17 16 20 18 21 25 22 21 18 12 11 15 14 13 14 16 18 21 21 22 23 24 25 26 28 29 30 32 33 33 33 34 35 37 38 38 36 36 37 33 32 33 39
12 15 8 18 16 13 5 17 14 9 3 4 8 10 13 15 17 19 20 21 22 22 23 23 25 25 25 25 26 27 28 29 30 30 31 31 29 25 24 24 26 30 32 32
13 17 9 7 8 7 6 6 6 6 4 7 11 13 16 18 18 19 21 22 22 22 23 24 24 24 23 23 23 23 24 23 21 21 20 21 22 25 21 18 19 18 14 11
5 3 4 9 8 9 6 5 7 10 12 12 14 16 18 20 21 21 21 21 22 22 22 22 21 21 21 20 20 19 18 19 18 17 17 17 15 15 17 15 13 10 7 6
4 6 6 4 6 9 11 12 15 14 15 16 17 17 18 19 18 18 18 19 19 19 19 18 18 18 18 17 15 16 16 15 15 14 13 12 12 13 12 12 12 11 9 7
11 9 8 11 15 15 15 15 15 15 17 18 17 17 17 16 16 16 16 16 16 16 15 14 14 15 14 14 13 13 13 12 12 12 12 11 11 11 11 11 11 11 12 12
15 16 14 15 18 17 15 14 14 15 15 16 15 14 14 14 13 12 11 12 12 12 12 12 12 11 11 10 10 10 11 12 13 14 15 15 15 15 16 16 16 17 18 18
13 17 17 14 14 14 13 12 13 13 12 11 10 10 10 8 7 7 7 7 8 8 8 8 8 8 8 10 11 12 14 15 16 17 18 18 18 19 19 19 18 16 16 16
13 15 16 17 16 14 13 10 9 7 6 5 4 3 2 3 3 4 4 5 5 5 6 7 10 12 14 15 16 16 18 18 19 20 20 21 21 20 20 20 19 18 17 16
16 16 15 14 12 9 7 5 4 3 2 2 4 3 2 2 2 3 4 6 8 10 12 14 15 17 18 18 19 20 20 20 20 20 20 20 20 20 19 17 16 16 16 16
11 9 7 5 3 2 1 2 4 7 7 6 4 2 3 6 8 10 12 13 14 16 17 18 19 20 21 21 21 21 20 20 20 19 19 18 18 17 17 17 16 16 16 17
3 3 3 4 5 6 6 6 5 3 1 3 5 8 10 12 13 15 16 18 19 20 20 21 21 21 22 21 21 20 19 17 16 16 15 14 15 16 17 18 19 20 21 21
4 6 7 7 6 4 1 1 3 6 8 9 11 13 15 17 18 19 20 22 22 22 22 22 22 21 20 19 18 17 16 15 14 14 14 15 16 17 18 20 21 22 23 25
7 6 4 2 2 4 5 7 10 12 14 15 17 17 19 20 21 22 22 22 22 22 22 21 20 19 18 17 16 15 14 14 14 15 17 18 20 23 24 25 25 26 27 27
3 3 4 6 8 10 12 14 15 16 18 19 21 22 23 23 23 23 21 21 22 21 20 19 19 18 18 15 15 15 16 17 18 20 21 23 24 25 26 26 26 26 27 27
6 8 10 12 14 15 17 18 19 19 20 20 21 21 21 22 21 21 21 21 20 19 19 18 16 15 15 15 15 16 18 20 22 23 24 25 25 25 25 24 23 22 21 21
12 14 16 18 20 22 22 23 23 23 22 20 20 21 21 21 21 21 20 19 18 17 16 17 16 16 16 16 18 19 21 23 24 25 24 24 22 22 21 20 19 18 18 17
Wind_Direction
290 277 271 293 271 246 236 232 222 254 254 248 241 201 162 138 218 212 166 136 132 140 165 197 213 227 237 242 246 244 251 247 249 247 252 256 260 259 259 257 257 254 251 249
316 286 267 272 281 269 242 233 230 245 254 258 255 243 135 156 204 231 212 196 220 215 215 208 216 238 249 255 256 258 256 261 267 257 251 248 248 252 255 263 263 262 259 257
286 335 328 277 253 254 271 244 229 236 236 249 227 222 142 180 210 234 246 222 237 267 254 247 263 267 255 250 255 264 268 261 263 263 263 264 259 251 250 245 249 254 257 258
293 324 276 257 252 295 252 239 256 246 236 215 162 153 187 188 240 237 230 223 249 275 290 297 294 289 282 276 270 259 260 261 263 265 267 270 274 274 269 261 253 254 253 255
244 261 282 289 285 30 293 230 245 226 173 166 145 157 160 200 227 249 262 279 285 289 292 300 293 299 288 288 279 279 274 266 261 261 263 265 270 275 277 273 270 265 262 263
234 242 257 298 311 244 333 170 193 202 191 184 187 183 185 201 235 256 287 299 299 303 305 306 304 303 298 290 289 287 287 285 281 277 269 261 261 262 264 271 275 276 275 271
234 242 258 271 300 279 274 158 155 170 169 178 182 203 202 211 239 275 281 281 301 311 308 306 305 301 300 296 297 299 298 296 294 292 288 280 276 269 262 261 263 265 266 268
228 240 263 247 278 280 236 168 173 160 173 181 196 195 188 208 242 264 276 290 300 308 307 306 306 307 306 305 304 304 304 304 302 300 299 294 290 280 277 271 264 262 261 261
216 224 225 280 247 247 240 225 210 205 197 183 189 192 208 231 252 268 283 296 301 304 304 305 305 306 306 306 307 308 308 308 306 304 302 300 297 294 288 283 273 263 261 261
210 222 235 242 248 219 194 205 199 184 191 204 217 224 243 275 287 295 297 297 298 301 303 305 307 308 308 308 308 309 310 308 308 309 307 306 302 297 292 289 283 265 261 264
231 245 236 223 228 229 189 188 187 191 209 237 250 262 278 279 277 280 284 292 296 301 304 308 311 312 309 308 307 306 307 310 311 308 309 308 307 303 296 293 288 278 275 266
214 197 202 165 186 206 179 175 172 150 184 244 267 271 273 274 283 290 294 297 302 303 304 307 311 313 312 308 303 303 301 301 304 306 308 310 313 318 315 308 300 285 272 269
134 119 52 27 12 29 6 342 7 325 280 289 283 283 285 288 295 298 300 303 306 306 306 304 304 306 311 316 314 310 306 302 305 310 314 316 317 322 329 2 10 1 340 317
77 95 12 357 8 341 332 304 275 274 285 286 290 291 292 294 296 299 301 303 304 306 306 304 302 303 307 310 312 313 311 310 316 320 323 328 333 341 337 355 10 10 32 35
343 306 311 303 317 326 309 287 279 282 286 287 291 294 295 294 294 295 297 297 296 294 295 298 302 307 311 313 313 309 307 306 308 311 317 323 328 330 330 329 327 329 334 341
287 282 282 301 308 307 306 292 282 278 278 282 288 295 297 297 299 300 297 293 292 294 299 305 307 309 310 308 307 304 304 310 312 316 317 321 324 321 316 313 311 310 310 311
280 282 281 285 294 296 301 300 290 281 279 280 290 294 294 292 289 288 287 291 293 298 303 305 307 308 306 306 307 309 311 309 311 312 310 310 311 314 315 315 314 313 312 310
268 280 282 276 276 283 288 292 290 288 288 291 292 287 282 284 286 289 291 291 292 296 299 303 305 309 310 307 305 305 304 304 305 306 305 304 303 303 304 305 306 305 304 302
295 290 293 294 295 298 305 306 308 312 315 308 304 313 313 301 301 301 301 301 302 309 309 303 304 303 300 297 298 298 298 299 300 299 300 301 303 303 302 303 304 305 305 304
284 286 286 288 289 289 296 312 331 334 2 50 60 56 45 28 8 328 306 303 305 306 302 299 298 298 298 298 299 299 299 299 299 298 298 298 299 300 301 302 302 305 308 309
278 278 273 263 268 280 271 97 109 95 83 78 66 25 325 306 300 298 298 299 299 296 295 297 298 298 298 299 299 299 298 298 298 298 298 298 298 298 299 301 305 304 302 302
246 219 192 156 134 126 120 108 91 78 357 306 295 294 291 291 293 295 296 296 295 296 297 296 296 296 296 297 297 298 297 297 297 297 297 298 299 300 301 303 305 306 306 305
164 145 131 129 135 133 116 309 296 292 290 291 292 291 291 292 295 297 297 296 296 297 297 296 296 295 294 294 295 294 295 297 298 300 303 305 304 303 304 305 305 303 302 302
139 141 153 188 245 276 292 298 296 296 298 297 296 296 298 299 300 300 299 299 298 297 295 293 293 294 293 293 291 290 291 294 298 301 303 304 305 305 305 304 304 303 302 301
183 229 275 288 296 300 298 298 299 299 297 298 302 304 303 301 301 300 297 295 294 293 293 292 292 293 291 289 290 292 294 296 300 302 303 304 303 302 302 302 302 301 301 301
275 290 297 297 296 295 296 297 298 300 302 303 303 300 298 298 298 298 299 299 298 298 297 295 292 289 286 289 290 294 299 301 303 303 303 303 303 301 301 302 302 303 303 302
298 303 304 305 306 309 308 305 303 302 303 304 302 302 304 305 303 302 300 298 296 294 294 294 294 292 292 294 296 298 300 301 301 302 303 302 301 302 303 305 306 308 309 309
Height
2997 2996 2996 2995 2993 2995 2995 2996 2999 3000 2999 3003 3000 2999 3002 3005 3008 3010 3012 3009 3013 3015 3017 3019 3021 3022 3023 3024 3026 3027 3027 3029 3030 3031 3032 3033 3034 3035 3037 3038 3039 3040 3041 3040
2994 2993 2992 2991 2990 2990 2988 2990 2994 2995 2996 2998 2996 2998 2999 3002 3005 3009 3008 3008 3013 3016 3016 3018 3019 3020 3020 3020 3021 3022 3023 3022 3023 3024 3025 3026 3026 3027 3027 3029 3031 3032 3033 3033
2992 2991 2988 2986 2986 2987 2985 2985 2987 2988 2992 2992 2991 2993 3001 3000 3003 3006 3006 3007 3011 3013 3014 3014 3015 3017 3017 3017 3017 3016 3016 3017 3017 3016 3016 3017 3018 3019 3019 3019 3019 3019 3021 3022
2992 2990 2988 2983 2983 2982 2980 2982 2982 2982 2983 2986 2989 2988 2997 3001 2999 3002 3004 3005 3009 3010 3010 3010 3012 3012 3010 3010 3010 3011 3010 3009 3009 3010 3010 3009 3008 3007 3009 3011 3010 3010 3011 3011
2991 2989 2986 2980 2982 2981 2982 2980 2978 2977 2979 2984 2988 2987 2993 2997 2998 2999 3000 3002 3004 3005 3005 3006 3008 3007 3006 3005 3004 3004 3003 3002 3001 3000 3000 3000 3001 2998 2998 2998 2997 2998 3000 3001
2987 2987 2983 2979 2979 2978 2979 2976 2973 2973 2978 2983 2983 2984 2991 2995 2996 2997 2998 3000 3000 3001 3001 3003 3002 3001 3000 3000 2999 2999 2998 2995 2994 2992 2991 2990 2987 2987 2987 2987 2986 2987 2986 2986
2982 2982 2978 2980 2978 2978 2978 2981 2972 2972 2977 2983 2984 2989 2990 2992 2993 2995 2995 2996 2996 2997 2997 2996 2995 2994 2993 2993 2992 2991 2990 2988 2986 2983 2982 2980 2978 2975 2974 2973 2972 2973 2972 2972
2979 2980 2980 2978 2977 2979 2978 2976 2977 2978 2981 2984 2986 2985 2988 2991 2993 2993 2993 2992 2992 2991 2991 2989 2987 2985 2984 2983 2982 2980 2979 2978 2976 2973 2971 2968 2966 2964 2961 2959 2958 2957 2956 2954
2975 2975 2973 2972 2972 2973 2974 2977 2977 2978 2980 2982 2984 2986 2988 2989 2990 2991 2991 2990 2988 2986 2984 2982 2980 2979 2977 2976 2974 2972 2969 2966 2964 2962 2959 2956 2954 2951 2948 2945 2943 2941 2940 2940
2971 2969 2970 2971 2971 2970 2973 2975 2976 2979 2981 2981 2982 2983 2984 2985 2985 2986 2985 2984 2982 2980 2978 2976 2974 2972 2970 2968 2966 2964 2962 2959 2956 2953 2950 2947 2942 2938 2935 2931 2928 2926 2924 2924
2964 2964 2967 2967 2968 2970 2969 2970 2972 2975 2977 2978 2979 2980 2980 2980 2980 2980 2980 2979 2977 2975 2973 2970 2968 2965 2963 2961 2958 2956 2953 2951 2948 2944 2940 2936 2932 2927 2923 2918 2915 2913 2912 2912
2959 2961 2963 2962 2967 2969 2964 2965 2969 2972 2975 2976 2976 2976 2976 2976 2975 2974 2973 2971 2970 2968 2967 2965 2963 2961 2959 2956 2954 2952 2949 2947 2943 2939 2935 2930 2925 2920 2914 2908 2905 2904 2903 2901
2958 2960 2961 2962 2964 2966 2966 2966 2968 2970 2970 2970 2971 2971 2970 2969 2969 2967 2966 2964 2962 2961 2960 2959 2957 2955 2953 2950 2948 2945 2943 2940 2937 2934 2930 2926 2922 2919 2914 2909 2905 2902 2898 2895
2963 2962 2964 2962 2961 2964 2964 2964 2965 2966 2965 2964 2965 2964 2964 2963 2962 2960 2958 2957 2955 2953 2951 2951 2950 2948 2946 2944 2941 2939 2937 2935 2932 2929 2926 2923 2920 2917 2915 2914 2911 2908 2905 2902
2963 2963 2963 2962 2961 2962 2963 2962 2961 2959 2958 2959 2959 2958 2957 2956 2954 2953 2952 2950 2949 2948 2946 2945 2943 2941 2939 2937 2936 2935 2933 2931 2929 2927 2924 2921 2919 2917 2914 2912 2912 2910 2907 2903
2959 2960 2960 2959 2958 2958 2958 2956 2955 2953 2953 2954 2953 2951 2950 2948 2947 2946 2945 2944 2943 2942 2940 2939 2938 2936 2935 2934 2932 2931 2930 2928 2926 2923 2921 2919 2917 2914 2912 2910 2908 2907 2906 2904
2954 2954 2956 2956 2954 2952 2951 2950 2949 2948 2948 2948 2946 2945 2943 2942 2942 2941 2940 2939 2938 2937 2936 2935 2934 2933 2932 2931 2930 2929 2927 2926 2923 2921 2919 2916 2914 2912 2909 2907 2904 2902 2900 2899
2950 2949 2950 2950 2949 2948 2946 2945 2944 2943 2942 2941 2940 2940 2940 2939 2937 2937 2936 2935 2935 2934 2933 2932 2932 2931 2930 2929 2928 2926 2924 2922 2919 2917 2914 2911 2909 2907 2904 2902 2900 2898 2895 2893
2944 2943 2942 2941 2940 2939 2939 2939 2938 2938 2937 2937 2937 2936 2936 2936 2935 2934 2934 2933 2933 2932 2931 2930 2929 2928 2927 2925 2924 2922 2920 2917 2915 2912 2910 2907 2904 2901 2899 2897 2895 2893 2891 2889
2942 2941 2940 2940 2939 2938 2937 2936 2936 2936 2937 2936 2935 2935 2935 2935 2934 2934 2933 2932 2931 2930 2928 2927 2925 2924 2922 2920 2918 2916 2914 2912 2909 2906 2904 2901 2899 2897 2894 2892 2890 2888 2886 2884
2938 2938 2937 2937 2937 2937 2937 2936 2937 2937 2936 2936 2936 2936 2935 2934 2933 2932 2930 2929 2927 2926 2925 2923 2921 2919 2917 2915 2912 2910 2908 2905 2903 2900 2898 2896 2894 2891 2889 2887 2886 2884 2882 2880
2936 2936 2936 2936 2936 2937 2938 2937 2937 2937 2937 2936 2936 2935 2933 2932 2931 2929 2927 2926 2924 2922 2919 2917 2915 2913 2911 2908 2906 2903 2901 2899 2897 2895 2893 2891 2888 2886 2883 2882 2880 2877 2875 2873
2936 2937 2937 2937 2938 2938 2937 2937 2937 2936 2936 2935 2934 2932 2930 2928 2926 2924 2922 2920 2917 2915 2912 2910 2908 2906 2904 2902 2900 2897 2895 2893 2892 2890 2888 2885 2883 2881 2879 2876 2874 2872 2869 2867
2937 2937 2938 2938 2938 2937 2936 2936 2935 2934 2932 2930 2929 2927 2924 2921 2919 2917 2915 2912 2910 2908 2906 2903 2901 2899 2897 2895 2894 2892 2890 2889 2887 2885 2883 2881 2878 2875 2873 2870 2868 2865 2863 2860
2937 2937 2937 2937 2936 2935 2934 2933 2931 2929 2927 2924 2921 2919 2917 2915 2913 2910 2909 2906 2903 2901 2899 2897 2895 2893 2891 2891 2888 2886 2884 2883 2881 2879 2877 2875 2872 2869 2866 2864 2861 2858 2856 2853
2936 2936 2935 2934 2933 2931 2929 2927 2925 2923 2920 2918 2916 2914 2911 2909 2907 2904 2902 2899 2897 2895 2893 2891 2890 2889 2887 2885 2884 2882 2880 2877 2875 2873 2871 2868 2865 2862 2859 2857 2854 2852 2849 2846
2934 2933 2930 2928 2926 2924 2922 2920 2918 2916 2915 2913 2910 2907 2904 2902 2899 2897 2896 2893 2891 2890 2888 2886 2884 2883 2882 2880 2878 2877 2875 2872 2869 2867 2864 2861 2858 2855 2853 2850 2847 2845 2842 2840